Temperature
21 21 20 20 21 22 24 25 26 25 26 25 25 25 24 23 21 19 18 18 18 18 18 18 18 18 18 17 17 17 17 17 17 17 17 17 17 17 17 17 17 17 17 18 18 18 18 18 18
21 21 21 21 22 23 24 25 25 25 26 25 25 25 24 22 20 19 18 18 18 18 18 18 18 17 17 17 17 17 17 17 17 17 17 17 17 17 17 17 17 17 17 17 17 17 17 18 18
21 21 21 22 23 24 24 25 26 26 26 26 25 24 23 21 20 19 18 18 18 18 18 18 18 17 17 17 17 17 17 17 17 17 17 17 17 17 17 17 17 17 17 17 17 17 17 17 17
21 22 23 23 24 25 25 26 26 26 26 26 25 23 21 20 19 19 19 19 18 18 18 18 17 17 17 17 17 17 17 17 17 17 17 17 17 17 17 17 17 17 17 17 17 17 17 17 17
22 22 23 24 25 26 27 27 27 26 26 25 24 22 20 19 19 19 19 19 18 18 18 18 17 17 17 17 17 17 17 17 17 16 16 16 16 16 17 17 17 17 17 17 17 17 17 17 17
23 24 24 24 25 26 27 27 26 26 25 25 24 22 20 19 19 19 19 19 18 18 18 17 17 17 17 17 17 17 17 16 16 16 16 16 16 16 16 16 16 16 16 17 17 17 17 17 17
23 24 24 25 25 25 26 26 26 26 25 24 24 22 20 19 19 19 19 19 18 18 18 17 17 17 17 17 17 16 16 16 16 16 16 16 16 16 16 16 16 16 16 16 16 16 17 17 17
23 24 25 25 24 24 26 26 25 25 24 24 24 22 20 19 19 19 19 19 18 18 18 17 17 17 17 17 17 16 16 16 16 16 16 16 16 16 16 16 16 16 16 16 16 16 17 17 17
24 24 24 25 24 24 25 25 25 25 24 24 23 22 20 19 19 19 19 19 19 18 18 18 17 17 17 17 17 16 16 16 16 16 16 16 16 16 16 16 16 16 16 16 16 16 16 16 16
25 23 24 26 26 25 25 25 25 25 24 23 22 21 20 20 20 20 19 19 19 19 18 18 18 17 17 17 17 16 16 16 16 16 16 16 16 16 16 16 16 16 16 16 16 16 16 16 16
26 25 25 26 26 26 26 25 25 25 24 24 22 21 20 20 20 20 20 19 19 19 19 18 18 18 17 17 17 17 16 16 16 16 16 16 16 16 16 16 16 16 16 16 16 16 16 16 16
26 26 26 26 25 25 25 25 25 24 24 23 22 21 21 20 20 20 20 19 19 19 19 18 18 18 18 17 17 17 17 17 17 17 16 16 16 16 16 16 16 16 16 16 16 16 16 16 16
26 26 26 26 25 25 25 25 25 24 23 23 22 22 21 21 21 20 20 20 19 19 19 18 18 18 18 17 17 17 17 17 17 16 16 16 16 16 16 16 16 16 16 16 16 16 16 16 16
26 26 25 25 25 25 25 25 25 24 23 23 22 22 21 21 21 21 20 20 19 19 19 18 18 18 18 18 17 17 17 17 17 16 17 17 16 16 16 16 16 16 16 16 16 16 16 16 16
25 25 25 26 26 25 25 24 25 24 23 23 22 22 22 21 21 21 20 20 20 19 19 18 18 18 18 18 17 17 17 17 17 16 17 17 17 16 16 16 16 16 16 16 16 16 16 16 16
25 25 24 25 26 25 24 23 25 24 24 23 23 22 22 21 21 21 21 20 20 19 19 18 18 18 17 17 17 17 17 17 17 16 17 17 16 16 16 16 16 16 16 16 16 16 16 16 16
25 24 24 25 26 26 25 24 24 24 24 24 23 23 22 21 21 21 21 20 20 19 19 18 18 18 17 17 17 17 17 17 16 16 16 16 16 16 16 16 16 16 16 16 16 16 16 16 16
24 25 25 25 26 26 25 24 25 24 24 24 24 23 22 22 21 21 21 20 20 19 19 18 18 18 17 17 17 17 16 16 16 16 16 16 16 16 16 16 16 16 16 16 16 16 15 15 15
25 25 25 26 26 25 25 24 25 25 24 24 24 23 23 22 21 21 20 20 19 19 19 18 18 18 17 17 17 17 16 16 16 16 16 16 16 16 16 16 16 16 16 16 15 15 15 15 15
25 25 25 25 26 25 25 25 25 25 25 24 24 23 23 22 21 21 20 20 19 19 19 18 18 18 17 17 17 16 16 16 16 16 16 16 16 16 16 16 16 16 16 15 15 15 15 15 15
25 24 24 24 25 25 24 24 24 25 25 25 24 24 23 22 21 21 20 20 19 19 19 19 18 17 17 17 17 16 16 16 16 16 16 16 16 16 16 16 16 16 15 15 15 15 15 15 15
24 25 25 24 23 23 24 22 24 25 24 24 24 24 24 23 22 21 20 20 19 19 19 19 18 18 17 17 17 16 16 16 16 16 16 16 16 16 16 16 16 16 15 15 15 15 15 15 15
24 25 25 24 23 23 24 23 24 25 24 24 24 24 23 23 22 21 20 20 19 19 19 18 18 17 17 17 17 16 16 16 16 16 16 15 16 16 16 16 16 16 15 15 15 15 15 15 15
25 24 24 24 23 22 24 23 23 24 24 24 24 24 23 23 22 21 20 20 19 19 18 18 18 17 17 17 17 16 16 16 16 16 16 16 16 16 16 15 16 16 15 15 15 15 15 15 15
24 23 22 22 21 22 25 24 24 25 25 25 24 24 23 23 22 21 20 19 19 19 18 18 17 17 17 17 17 16 16 16 16 16 16 16 16 16 16 16 16 16 15 15 15 15 15 15 15
24 23 22 21 22 23 24 24 24 26 25 25 24 24 23 22 22 21 20 19 19 18 18 18 17 17 17 17 17 17 16 16 16 16 16 16 16 16 16 16 16 16 15 15 15 15 15 15 15
23 23 24 23 23 22 23 24 24 25 24 24 24 23 23 22 21 21 20 19 19 18 18 18 17 17 17 17 17 17 16 16 16 16 16 16 16 16 16 16 16 16 16 15 15 15 15 15 15
24 24 23 22 21 21 23 23 23 23 23 24 23 23 22 22 21 21 20 19 19 18 18 17 17 17 17 17 17 17 16 16 16 16 16 16 16 16 16 16 16 16 16 16 15 15 15 15 15
23 23 23 22 22 21 21 22 24 23 23 23 23 23 22 22 21 20 20 19 19 18 18 17 17 17 17 17 17 16 16 16 16 16 16 16 16 16 16 16 16 16 16 15 15 15 15 15 15
24 23 23 21 22 22 21 22 24 24 24 23 23 23 22 21 20 20 20 19 18 18 18 17 17 17 17 17 17 17 16 16 16 16 16 16 16 16 16 16 16 16 16 16 15 15 15 15 15
Wind_Speed
10 11 7 3 3 3 2 5 9 8 7 9 9 9 11 12 8 7 3 3 8 11 12 11 10 10 10 10 10 11 11 10 9 9 9 9 10 10 10 9 9 10 10 10 9 10 9 9 8
10 7 4 3 3 0 4 7 9 10 7 6 7 10 12 11 10 8 4 3 8 12 12 11 11 11 11 10 11 11 11 10 10 9 9 9 9 9 9 9 9 9 9 9 9 9 9 9 8
10 6 4 3 2 3 4 7 8 9 7 6 7 10 8 6 8 5 5 5 10 12 13 12 11 11 11 11 11 11 11 11 10 10 9 9 9 9 8 8 8 8 9 9 8 8 8 8 7
5 4 4 3 2 6 7 7 6 6 6 7 8 9 8 9 6 7 6 8 11 12 14 13 12 12 12 12 11 10 10 11 10 10 10 9 9 9 8 8 8 8 8 8 8 7 8 8 7
4 4 4 2 4 7 7 7 6 7 7 9 11 10 9 9 9 8 7 9 10 11 13 13 13 13 12 12 11 11 11 10 10 10 10 9 9 9 8 8 9 8 8 7 7 7 7 7 7
4 4 4 1 5 7 7 6 7 8 7 8 8 10 7 8 8 7 8 9 10 11 12 14 13 13 13 12 11 11 10 10 10 10 9 9 9 9 8 9 8 8 7 7 7 6 6 6 6
5 5 4 1 4 5 6 6 7 6 8 7 5 8 8 8 6 8 8 8 9 9 10 12 13 13 13 12 11 10 10 9 9 8 8 8 8 8 8 8 8 7 7 7 7 6 5 5 4
4 5 5 1 4 4 5 5 5 7 6 5 4 6 8 8 7 8 8 8 8 8 8 8 12 13 12 11 11 10 9 8 8 7 6 6 7 7 8 8 7 6 6 6 5 5 4 4 3
5 4 3 3 3 3 4 3 4 4 5 6 8 10 12 11 9 7 7 8 7 7 6 6 8 9 11 11 11 10 9 7 7 6 5 5 5 7 8 8 7 6 5 4 3 3 3 2 1
4 3 2 4 4 4 3 2 2 2 4 6 9 12 12 10 8 7 7 8 7 7 6 6 6 7 8 8 9 8 7 7 6 5 4 4 4 6 8 8 7 5 4 3 2 1 1 2 1
3 2 3 3 3 2 2 2 1 1 3 5 9 12 10 9 8 7 7 7 7 7 6 6 6 6 6 5 6 4 5 4 4 5 4 4 5 6 6 7 6 5 4 2 2 2 1 2 4
2 2 2 2 3 1 1 1 1 3 4 5 9 12 10 8 7 6 7 8 7 7 6 6 5 5 6 6 4 4 3 3 3 3 5 4 2 2 3 3 4 4 3 2 2 2 5 5 7
3 2 1 0 1 1 1 0 1 3 5 6 8 10 9 8 7 7 7 7 7 7 6 6 4 5 6 4 2 4 3 3 5 3 3 4 2 2 2 3 3 3 4 4 3 4 5 5 7
2 1 2 3 2 3 2 2 3 4 6 7 8 8 8 8 7 7 8 7 8 7 7 5 5 5 5 4 2 3 4 4 4 3 2 5 3 2 2 3 3 3 4 4 4 4 4 4 5
3 5 5 5 5 3 3 5 4 7 7 8 8 8 8 8 7 7 7 7 8 7 8 6 5 5 5 5 3 3 3 4 4 2 2 4 4 4 3 2 2 2 5 6 5 5 5 4 4
7 8 6 5 5 4 4 4 5 8 8 8 8 9 7 7 8 7 7 7 7 8 8 6 5 6 6 5 3 2 4 5 4 3 4 5 4 7 4 2 2 3 4 5 3 3 3 4 4
8 7 6 5 7 5 5 4 5 7 7 8 8 10 10 9 8 8 8 8 7 7 8 7 6 6 6 4 3 3 4 4 4 5 6 6 6 7 6 2 2 5 4 2 3 4 4 4 3
5 6 5 4 5 5 6 5 6 8 8 7 8 8 10 10 10 9 8 8 7 7 7 8 7 6 6 3 3 3 4 3 5 5 5 6 5 6 6 2 3 5 3 3 4 4 4 3 3
6 7 7 3 1 3 6 6 6 8 8 7 8 8 9 9 9 9 9 9 8 7 6 8 7 6 5 2 3 3 3 2 3 3 5 5 5 5 5 3 3 3 3 3 3 3 3 2 2
9 7 6 3 3 5 6 7 6 7 9 9 9 9 9 10 10 10 10 9 9 8 7 8 7 6 6 3 2 3 3 3 4 3 4 5 5 5 3 3 2 3 3 3 3 2 2 1 1
9 7 6 6 6 7 7 7 8 7 8 7 7 8 10 12 12 12 11 9 9 9 7 7 8 7 7 5 3 3 3 2 3 3 3 3 4 5 5 4 3 2 3 2 2 2 2 1 1
7 5 5 6 7 5 6 4 4 6 8 8 7 7 7 10 12 12 11 10 10 9 7 7 8 7 7 6 3 3 3 3 3 3 3 3 4 5 4 4 3 2 3 2 1 3 2 2 1
5 6 6 8 9 9 8 6 3 4 6 7 7 8 7 8 11 12 12 10 9 8 7 6 8 8 7 6 4 2 3 2 3 3 4 4 3 3 3 3 2 2 2 2 3 3 2 2 1
4 7 8 8 7 7 9 7 2 3 4 4 5 7 8 8 9 11 11 10 9 9 8 7 8 8 6 5 5 3 4 3 4 4 3 3 2 2 2 2 2 2 2 2 3 3 3 2 2
6 5 3 4 5 5 4 4 2 4 4 3 3 4 7 8 9 10 12 11 10 10 9 8 8 8 7 5 5 5 4 3 4 4 3 3 3 2 2 2 1 2 2 3 3 3 2 2 2
7 7 4 3 3 3 2 3 3 6 6 4 3 3 6 8 9 10 11 11 11 11 10 9 9 8 7 5 5 5 4 2 3 3 4 3 3 3 3 3 3 3 3 3 3 2 2 3 3
6 7 7 7 8 6 3 2 4 6 5 3 3 4 6 7 8 10 11 11 11 11 10 10 10 9 8 6 4 4 4 4 3 3 4 3 3 3 4 4 3 2 2 3 3 2 3 3 3
8 6 4 4 4 5 4 3 2 4 3 3 3 3 6 7 8 10 11 11 11 10 9 10 10 9 8 7 5 4 3 4 4 3 2 3 4 4 4 3 4 4 3 3 3 3 2 3 2
9 8 6 5 5 4 3 1 2 3 3 3 3 3 5 7 6 8 9 10 11 11 10 9 10 9 8 7 6 5 4 4 4 3 3 3 3 4 5 3 3 3 3 4 3 2 1 2 2
9 9 8 6 5 5 5 1 3 3 3 2 3 4 6 7 7 7 8 9 10 11 10 10 9 9 8 7 7 6 5 5 5 4 3 3 3 4 4 4 3 4 4 4 4 3 2 3 3
Wind_Direction
272 248 239 242 256 237 54 63 65 52 48 47 40 54 67 55 50 86 118 65 93 99 100 95 91 90 89 87 87 89 90 90 88 84 83 82 81 80 79 78 77 76 75 73 69 69 65 61 59
280 273 259 240 259 248 67 68 69 62 55 57 54 59 69 65 72 93 106 84 93 94 92 92 95 92 91 90 90 91 92 91 88 85 84 84 83 80 78 78 77 74 73 71 68 66 64 60 54
269 265 260 250 287 54 75 73 72 74 53 52 67 59 54 59 71 94 125 120 96 93 92 92 96 96 94 91 91 94 94 92 90 90 86 86 85 81 77 75 74 72 72 71 68 63 61 58 52
269 254 245 253 28 70 85 85 81 72 57 49 71 75 66 54 77 106 123 109 97 98 98 99 97 97 96 94 92 93 94 94 94 94 90 89 87 84 80 79 77 73 72 72 69 63 59 55 49
249 256 252 245 83 75 72 66 68 66 57 56 72 89 84 74 91 105 103 96 95 99 103 105 102 101 98 96 96 100 100 99 98 97 94 91 87 84 83 83 81 76 73 73 68 62 58 55 49
267 253 262 190 96 80 67 56 53 67 65 61 82 98 97 99 96 100 100 97 103 107 110 112 107 103 100 99 98 102 102 100 101 99 97 96 94 92 86 83 81 79 75 74 72 65 61 59 53
277 285 283 123 101 89 68 49 51 61 63 48 67 99 115 106 106 105 102 103 104 109 116 122 121 110 102 99 102 104 105 105 105 107 107 108 110 105 97 91 86 83 80 76 75 74 67 65 60
284 291 295 42 96 86 71 59 55 56 70 55 48 102 123 124 124 114 116 107 104 109 113 122 125 125 120 111 112 117 118 118 118 125 136 138 137 128 115 105 96 89 82 84 83 83 80 76 64
274 274 323 34 85 94 84 67 63 85 96 78 64 87 119 134 135 127 121 111 110 112 116 118 122 127 125 123 126 135 138 140 143 154 169 172 169 151 130 111 112 105 98 100 105 110 124 123 111
245 304 355 36 64 108 108 80 93 127 106 101 99 104 122 141 146 144 138 132 129 123 118 114 118 121 117 121 135 149 144 152 164 150 154 161 135 116 121 129 133 133 137 145 171 204 176 172 183
251 291 7 31 49 89 115 110 77 86 87 105 125 132 141 154 153 147 133 120 115 117 112 109 111 114 117 114 122 128 129 142 134 120 123 111 112 133 137 151 161 166 169 185 178 195 181 143 99
271 315 358 60 58 37 67 94 78 69 74 99 125 136 149 157 148 146 130 123 119 110 109 108 110 115 113 114 123 136 124 117 100 92 99 91 95 103 110 122 140 140 121 82 75 70 60 68 75
249 238 284 297 145 258 246 150 88 103 110 117 131 141 152 155 152 141 126 124 121 117 119 106 101 99 101 103 134 122 105 90 99 77 85 102 86 73 94 96 86 76 85 80 62 68 64 56 58
269 261 239 241 214 230 249 244 209 146 136 142 146 152 164 154 148 141 135 140 137 139 127 112 112 103 117 125 116 111 111 117 102 94 91 103 101 88 73 80 76 69 69 72 70 76 75 68 60
247 245 232 221 220 217 253 252 197 152 159 162 163 164 160 150 151 153 146 146 142 134 123 119 111 100 87 87 75 90 105 104 92 79 72 97 95 96 78 75 76 76 74 69 60 62 73 80 75
231 235 233 207 206 202 228 252 166 161 175 174 174 163 158 157 165 156 147 141 133 130 123 122 108 96 79 72 69 76 89 84 84 70 49 60 80 90 83 64 80 92 83 84 75 52 68 73 66
230 237 240 211 193 209 224 244 175 175 186 184 184 169 167 170 173 158 151 142 137 133 130 127 109 102 89 87 93 52 77 79 78 70 55 44 57 84 81 48 44 76 75 63 74 65 69 79 73
245 258 259 245 186 216 239 245 203 194 204 201 184 174 174 174 172 160 150 136 128 122 125 123 115 113 107 93 95 77 68 68 71 69 66 53 52 72 81 65 52 67 71 63 69 76 70 73 70
279 271 273 279 233 248 256 253 227 198 203 210 192 182 179 173 162 152 144 138 136 135 135 132 137 130 118 98 99 102 100 91 82 81 73 60 58 70 78 62 57 58 76 83 93 86 94 86 88
274 274 285 295 293 273 265 261 242 209 206 208 203 188 182 172 160 155 157 156 154 153 158 156 145 129 116 102 112 125 115 106 94 77 67 60 58 52 79 78 81 79 79 70 78 91 76 79 117
265 269 281 293 296 269 267 260 240 210 206 202 211 199 184 174 168 165 167 159 155 157 166 149 133 130 130 127 87 84 84 89 94 94 75 59 63 50 50 59 72 99 104 110 116 108 101 50 36
260 276 281 280 278 267 249 270 240 202 190 193 198 206 192 175 171 166 162 160 163 160 158 146 138 133 123 117 110 122 113 111 116 117 119 95 70 69 48 54 56 80 92 114 124 100 96 86 38
277 291 270 266 271 276 264 262 242 183 181 187 188 194 189 175 168 163 160 162 161 153 144 138 127 121 118 121 122 122 116 125 120 115 117 112 96 88 70 51 44 74 89 97 84 82 78 84 80
263 273 264 248 258 258 247 245 240 193 169 171 175 183 180 173 164 158 155 152 149 142 137 132 127 125 128 135 149 150 137 149 129 120 121 125 118 97 89 71 59 73 82 84 86 89 83 67 52
236 255 255 222 220 237 228 229 195 104 94 112 146 173 170 164 158 156 154 156 152 148 147 144 141 138 144 163 172 169 171 168 138 139 134 129 124 118 115 96 74 70 73 75 76 77 95 96 79
232 240 258 275 272 290 242 228 115 97 92 101 117 141 149 156 160 160 159 158 155 154 154 157 153 153 160 180 183 168 153 137 131 137 133 138 136 141 139 116 98 82 79 79 74 68 61 78 78
237 244 262 286 293 288 244 164 121 105 96 105 132 136 142 154 161 160 160 161 158 158 161 164 159 162 167 180 173 153 156 150 143 132 125 136 142 142 132 129 122 116 95 84 82 67 50 59 52
243 257 257 261 284 273 264 240 187 138 138 151 140 144 147 155 163 163 162 162 161 159 163 165 166 167 167 172 166 162 147 131 123 116 128 142 142 134 128 130 134 134 124 101 88 74 59 79 84
221 235 239 248 259 276 288 322 58 118 135 140 139 135 144 145 150 156 160 162 159 158 163 170 171 165 165 169 160 156 147 142 139 139 142 142 139 131 132 135 130 126 123 108 98 100 74 87 101
230 232 234 241 259 261 273 253 122 115 107 121 136 131 135 139 146 152 154 157 160 162 170 173 170 166 166 163 160 165 156 160 156 152 162 151 141 138 141 137 132 124 116 118 121 121 96 73 69
Height
1506 1507 1508 1510 1510 1511 1508 1501 1497 1499 1499 1501 1501 1501 1505 1510 1515 1525 1525 1524 1524 1522 1522 1522 1522 1523 1523 1524 1524 1525 1525 1526 1528 1529 1529 1530 1531 1531 1532 1532 1533 1533 1534 1534 1535 1535 1535 1535 1535
1506 1508 1510 1510 1511 1514 1511 1501 1501 1501 1502 1502 1503 1504 1508 1514 1518 1522 1523 1524 1524 1523 1523 1523 1523 1523 1524 1524 1525 1526 1526 1527 1528 1529 1530 1531 1531 1532 1532 1533 1533 1534 1534 1535 1535 1536 1536 1536 1536
1507 1509 1510 1507 1506 1510 1510 1501 1501 1502 1503 1503 1505 1508 1513 1518 1521 1522 1524 1524 1524 1524 1524 1523 1523 1524 1524 1525 1526 1526 1527 1528 1529 1529 1530 1531 1532 1532 1533 1533 1534 1534 1535 1535 1536 1536 1536 1537 1537
1509 1510 1509 1507 1507 1501 1501 1501 1501 1503 1504 1504 1506 1511 1518 1521 1522 1523 1524 1525 1525 1524 1524 1524 1524 1525 1525 1526 1527 1527 1528 1529 1529 1530 1531 1531 1532 1532 1533 1533 1534 1535 1535 1535 1536 1536 1537 1537 1537
1510 1509 1508 1507 1504 1499 1499 1500 1502 1503 1505 1506 1509 1515 1521 1523 1524 1524 1525 1526 1526 1526 1525 1525 1525 1526 1526 1527 1527 1528 1529 1530 1530 1531 1532 1532 1533 1533 1534 1534 1535 1535 1536 1536 1536 1537 1537 1537 1538
1510 1506 1510 1510 1504 1500 1501 1503 1503 1505 1507 1509 1511 1515 1522 1524 1525 1525 1526 1527 1527 1527 1527 1527 1527 1527 1527 1528 1529 1529 1530 1531 1532 1532 1533 1534 1534 1534 1535 1535 1536 1536 1536 1537 1537 1537 1538 1538 1539
1511 1507 1506 1505 1505 1505 1503 1504 1506 1507 1509 1511 1512 1516 1522 1525 1526 1527 1527 1528 1528 1528 1528 1528 1528 1528 1529 1529 1530 1531 1532 1532 1533 1534 1534 1535 1536 1536 1536 1537 1537 1537 1537 1538 1538 1538 1539 1539 1540
1510 1507 1504 1503 1507 1508 1506 1507 1508 1509 1512 1514 1514 1516 1522 1525 1526 1527 1528 1529 1530 1530 1530 1530 1530 1530 1530 1531 1532 1532 1534 1534 1535 1535 1536 1537 1537 1538 1538 1538 1539 1539 1539 1539 1539 1540 1540 1540 1541
1509 1510 1510 1506 1507 1508 1507 1508 1510 1511 1513 1514 1515 1517 1521 1524 1526 1527 1529 1530 1531 1531 1532 1532 1532 1532 1533 1533 1534 1534 1535 1536 1536 1537 1538 1538 1539 1540 1540 1540 1541 1540 1541 1541 1541 1541 1542 1542 1543
1508 1511 1508 1503 1503 1505 1507 1508 1510 1511 1512 1515 1518 1520 1523 1524 1526 1527 1529 1530 1531 1532 1533 1533 1534 1534 1534 1535 1535 1536 1537 1537 1538 1539 1539 1540 1541 1542 1542 1542 1542 1542 1542 1543 1543 1543 1543 1544 1544
1505 1507 1504 1504 1504 1506 1507 1509 1510 1510 1513 1515 1518 1520 1523 1525 1526 1527 1529 1530 1532 1533 1534 1535 1535 1535 1535 1536 1537 1538 1539 1539 1540 1541 1541 1542 1543 1543 1544 1543 1544 1544 1544 1544 1545 1545 1545 1545 1546
1505 1505 1504 1505 1506 1507 1508 1509 1510 1511 1514 1516 1517 1520 1522 1524 1526 1527 1529 1531 1532 1534 1535 1536 1536 1536 1537 1538 1538 1539 1540 1541 1541 1542 1543 1544 1544 1545 1545 1545 1546 1546 1546 1546 1546 1547 1547 1547 1548
1505 1505 1506 1506 1507 1508 1509 1509 1510 1512 1514 1516 1518 1520 1522 1524 1526 1527 1529 1531 1532 1534 1535 1536 1537 1537 1538 1538 1539 1540 1541 1542 1542 1543 1544 1545 1546 1546 1547 1547 1547 1548 1548 1548 1548 1548 1548 1548 1549
1505 1505 1506 1506 1507 1508 1508 1509 1510 1512 1514 1516 1518 1520 1522 1523 1525 1528 1529 1531 1532 1534 1535 1537 1538 1538 1539 1539 1540 1541 1542 1543 1543 1544 1545 1546 1546 1547 1548 1548 1548 1549 1549 1549 1549 1550 1550 1550 1550
1505 1506 1506 1505 1506 1506 1508 1509 1508 1511 1513 1515 1518 1520 1522 1523 1525 1527 1529 1531 1532 1534 1535 1537 1538 1539 1539 1540 1541 1542 1543 1543 1544 1545 1546 1546 1547 1548 1549 1549 1549 1550 1550 1550 1550 1551 1551 1551 1551
1504 1506 1509 1503 1503 1505 1511 1515 1507 1509 1511 1514 1516 1518 1521 1523 1525 1527 1528 1530 1532 1534 1535 1537 1539 1539 1540 1541 1542 1543 1543 1544 1545 1546 1546 1547 1548 1549 1549 1550 1550 1551 1551 1551 1551 1552 1552 1553 1553
1505 1509 1508 1503 1500 1502 1506 1510 1506 1508 1509 1511 1514 1516 1519 1522 1524 1526 1528 1530 1532 1534 1535 1537 1539 1540 1541 1541 1542 1543 1544 1545 1546 1546 1547 1548 1549 1549 1550 1551 1551 1552 1552 1552 1553 1553 1553 1554 1554
1509 1506 1504 1502 1498 1500 1504 1505 1504 1505 1507 1508 1511 1514 1517 1519 1522 1525 1527 1529 1531 1534 1535 1537 1538 1540 1541 1542 1543 1544 1545 1546 1546 1547 1548 1549 1549 1550 1550 1551 1552 1552 1552 1553 1553 1554 1554 1555 1555
1500 1502 1502 1498 1495 1499 1502 1503 1501 1502 1505 1506 1508 1511 1514 1517 1521 1523 1526 1528 1531 1533 1535 1536 1538 1540 1541 1542 1544 1545 1545 1546 1547 1548 1549 1549 1550 1550 1551 1552 1552 1552 1553 1554 1554 1555 1555 1556 1556
1499 1502 1502 1498 1495 1498 1501 1500 1497 1498 1500 1503 1505 1508 1511 1515 1518 1521 1525 1527 1530 1532 1535 1536 1538 1540 1541 1543 1544 1545 1546 1547 1548 1548 1549 1550 1550 1551 1552 1552 1553 1553 1553 1554 1555 1555 1556 1557 1557
1500 1502 1503 1503 1498 1496 1500 1503 1497 1494 1497 1499 1502 1504 1507 1511 1515 1519 1522 1525 1528 1531 1534 1536 1537 1539 1541 1543 1544 1546 1546 1547 1548 1549 1550 1550 1551 1551 1552 1552 1553 1553 1554 1554 1555 1556 1557 1557 1558
1503 1497 1498 1501 1506 1506 1501 1513 1498 1491 1494 1496 1499 1502 1505 1508 1512 1516 1520 1523 1527 1530 1533 1535 1537 1539 1540 1542 1544 1546 1546 1548 1549 1549 1550 1551 1551 1552 1552 1553 1553 1554 1554 1555 1556 1556 1557 1557 1558
1499 1496 1497 1500 1503 1506 1500 1507 1500 1489 1494 1494 1496 1499 1502 1506 1509 1513 1517 1521 1525 1528 1531 1534 1536 1538 1540 1542 1544 1545 1547 1548 1549 1550 1550 1551 1551 1552 1552 1553 1554 1554 1555 1555 1556 1557 1557 1557 1558
1496 1497 1496 1498 1503 1514 1500 1504 1503 1491 1490 1491 1493 1496 1500 1503 1507 1511 1515 1519 1523 1526 1529 1532 1535 1537 1539 1541 1543 1545 1546 1548 1549 1550 1551 1551 1552 1552 1553 1553 1554 1555 1555 1556 1556 1557 1557 1558 1558
1497 1505 1514 1516 1517 1510 1490 1496 1496 1485 1485 1488 1491 1494 1497 1501 1505 1509 1513 1517 1521 1524 1528 1531 1533 1536 1538 1540 1543 1545 1546 1548 1549 1550 1551 1552 1552 1553 1554 1554 1555 1555 1556 1556 1557 1557 1558 1558 1558
1496 1500 1515 1522 1516 1504 1493 1497 1490 1482 1485 1488 1491 1493 1496 1500 1503 1507 1511 1515 1518 1522 1525 1529 1532 1535 1537 1540 1542 1544 1546 1547 1549 1550 1551 1552 1552 1553 1554 1555 1555 1556 1556 1557 1557 1557 1558 1558 1559
1496 1498 1495 1504 1504 1508 1498 1490 1486 1483 1486 1489 1491 1493 1495 1499 1502 1506 1509 1513 1516 1520 1524 1527 1530 1533 1536 1539 1542 1544 1546 1547 1549 1550 1551 1552 1553 1554 1555 1555 1556 1556 1557 1557 1558 1558 1558 1559 1559
1491 1493 1498 1507 1515 1517 1503 1497 1496 1489 1488 1489 1490 1493 1495 1498 1501 1504 1508 1511 1515 1518 1522 1526 1529 1532 1535 1538 1541 1543 1545 1547 1548 1550 1551 1552 1553 1554 1555 1556 1556 1557 1558 1558 1558 1559 1559 1560 1560
1493 1495 1496 1500 1502 1513 1515 1506 1484 1486 1486 1488 1490 1492 1494 1497 1500 1503 1506 1510 1513 1517 1521 1524 1528 1531 1534 1537 1540 1542 1544 1546 1548 1549 1551 1552 1553 1554 1555 1556 1557 1558 1558 1559 1559 1560 1560 1560 1561
1486 1489 1493 1506 1505 1500 1508 1505 1482 1483 1485 1487 1489 1491 1493 1496 1499 1502 1505 1509 1512 1515 1519 1522 1526 1529 1532 1535 1538 1541 1543 1545 1547 1549 1550 1552 1553 1554 1555 1557 1557 1558 1559 1559 1560 1560 1561 1561 1562